KUIPER-00120

Last updated on Mon Oct 20 2025 00:02:06 GMT+0000 (Coordinated Universal Time)

1 65762U 25217A 25292.25002315 -.00366448 00000+0 -11841-1 0 9999 2 65762 51.8646 328.1284 0009556 196.5329 356.4341 15.33025031 4649
UTC large
Height (km)
Speed (km/s)
/
Latitude / Longitude
Inclination (degrees)
Orbital Period (minutes)
Azimuth
Elevation
Range (km)
Doppler Factor

Next 0 passes for location: London (51.5072 / 0.1276)

Sorry there are no passes over London.